User: anonymous   Login
Location: Estes Park
(40.3770°N, 105.5210°W)
Time: 15:53:03
(UTC-07:00)
Language:

POLYITAN 1 - Orbit

View from above orbital plane
View from above orbital plane
View from above satellite
View from above satellite

Ground track
Ground track

The orbit data is extracted from the following two-line orbital elements,

1 40042U 14033AJ  17321.22415255  .00000597  00000-0  70664-4 0  9999
2 40042  97.9144 232.0543 0015328 145.7893 214.4314 14.88220453185180
Epoch (UTC): 17 November 2017 05:22:46
Eccentricity: 0.0015328
inclination: 97.9144°
perigee height: 593 km
apogee height: 614 km
right ascension of ascending node: 232.0543°
argument of perigee: 145.7893°
revolutions per day: 14.88220453
mean anomaly at epoch: 214.4314°
orbit number at epoch: 18518

The dashed part of the orbit path shows where the satellite is in the earth's shadow,  

DLR